Time,TemperatureF,DewpointF,PressureIn,WindDirection,WindDirectionDegrees,WindSpeedMPH,WindSpeedGustMPH,Humidity,HourlyPrecipIn,Conditions,Clouds,dailyrainin,SoftwareType,DateUTC
2013-02-20 00:02:00,35.0,23.0,29.44,WNW,290,5.0,11.0,62,0.00,,,-99.99,,2013-02-20 05:02:00,
2013-02-20 00:12:00,35.0,23.0,29.44,WNW,290,5.0,11.0,62,0.00,,,-99.99,,2013-02-20 05:12:00,
2013-02-20 00:22:00,37.0,25.0,29.44,WNW,288,5.0,11.0,61,0.00,,,-99.99,,2013-02-20 05:22:00,
2013-02-20 00:32:00,36.0,24.0,29.44,WNW,299,7.0,14.0,61,0.00,,,-99.99,,2013-02-20 05:32:00,
2013-02-20 00:43:00,36.0,24.0,29.44,WNW,299,7.0,14.0,61,0.00,,,-99.99,,2013-02-20 05:43:00,
2013-02-20 00:52:00,36.0,23.0,29.44,WNW,299,7.0,15.0,59,0.00,,,-99.99,,2013-02-20 05:52:00,
2013-02-20 01:01:00,35.0,22.0,29.44,WNW,292,6.0,13.0,59,0.00,,,-99.99,,2013-02-20 06:01:00,
2013-02-20 01:11:00,35.0,22.0,29.44,WNW,289,4.0,13.0,59,0.00,,,-99.99,,2013-02-20 06:11:00,
2013-02-20 01:21:00,35.0,22.0,29.44,WNW,289,4.0,13.0,59,0.00,,,-99.99,,2013-02-20 06:21:00,
2013-02-20 01:32:00,35.0,20.0,29.44,WNW,294,6.0,10.0,54,0.00,,,-99.99,,2013-02-20 06:32:00,
2013-02-20 01:42:00,35.0,20.0,29.44,WNW,294,6.0,10.0,54,0.00,,,-99.99,,2013-02-20 06:42:00,
2013-02-20 01:52:00,34.0,20.0,29.44,WNW,294,4.0,8.0,56,0.00,,,-99.99,,2013-02-20 06:52:00,
2013-02-20 02:01:00,34.0,20.0,29.44,WNW,292,4.0,7.0,56,0.00,,,-99.99,,2013-02-20 07:01:00,
2013-02-20 02:11:00,34.0,20.0,29.44,WNW,292,4.0,7.0,56,0.00,,,-99.99,,2013-02-20 07:11:00,
2013-02-20 02:21:00,34.0,20.0,29.44,WNW,290,4.0,8.0,56,0.00,,,-99.99,,2013-02-20 07:21:00,
2013-02-20 02:31:00,34.0,20.0,29.44,WNW,292,5.0,13.0,56,0.00,,,-99.99,,2013-02-20 07:31:00,
2013-02-20 02:42:00,34.0,20.0,29.44,WNW,292,5.0,13.0,56,0.00,,,-99.99,,2013-02-20 07:42:00,
2013-02-20 02:52:00,33.0,19.0,29.44,WNW,291,4.0,8.0,56,0.00,,,-99.99,,2013-02-20 07:52:00,
2013-02-20 03:05:00,33.0,19.0,29.44,WNW,286,5.0,9.0,56,0.00,,,-99.99,,2013-02-20 08:05:00,
2013-02-20 03:11:00,33.0,19.0,29.44,WNW,288,5.0,12.0,57,0.00,,,-99.99,,2013-02-20 08:11:00,
2013-02-20 03:21:00,33.0,19.0,29.44,WNW,288,5.0,12.0,57,0.00,,,-99.99,,2013-02-20 08:21:00,
2013-02-20 03:31:00,32.0,19.0,29.44,WNW,287,4.0,10.0,59,0.00,,,-99.99,,2013-02-20 08:31:00,
2013-02-20 03:41:00,32.0,19.0,29.44,WNW,287,4.0,10.0,59,0.00,,,-99.99,,2013-02-20 08:41:00,
2013-02-20 03:52:00,32.0,21.0,29.44,WNW,290,4.0,8.0,63,0.00,,,-99.99,,2013-02-20 08:52:00,
2013-02-20 04:01:00,31.0,21.0,29.44,WNW,285,5.0,8.0,66,0.00,,,-99.99,,2013-02-20 09:01:00,
2013-02-20 04:11:00,31.0,21.0,29.44,WNW,285,5.0,8.0,66,0.00,,,-99.99,,2013-02-20 09:11:00,
2013-02-20 04:21:00,31.0,21.0,29.44,WNW,283,3.0,7.0,66,0.00,,,-99.99,,2013-02-20 09:21:00,
2013-02-20 04:31:00,31.0,18.0,29.47,WNW,295,6.0,12.0,58,0.00,,,-99.99,,2013-02-20 09:31:00,
2013-02-20 04:42:00,31.0,18.0,29.47,WNW,295,6.0,12.0,58,0.00,,,-99.99,,2013-02-20 09:42:00,
2013-02-20 04:52:00,30.0,15.0,29.47,WNW,296,5.0,9.0,54,0.00,,,-99.99,,2013-02-20 09:52:00,
2013-02-20 05:01:00,30.0,15.0,29.47,WNW,293,6.0,12.0,54,0.00,,,-99.99,,2013-02-20 10:01:00,
2013-02-20 05:12:00,30.0,15.0,29.47,WNW,293,6.0,12.0,54,0.00,,,-99.99,,2013-02-20 10:12:00,
2013-02-20 05:22:00,29.0,15.0,29.47,WNW,293,5.0,9.0,55,0.00,,,-99.99,,2013-02-20 10:22:00,
2013-02-20 05:32:00,29.0,15.0,29.47,WNW,283,4.0,12.0,56,0.00,,,-99.99,,2013-02-20 10:32:00,
2013-02-20 05:42:00,29.0,15.0,29.47,WNW,283,4.0,12.0,56,0.00,,,-99.99,,2013-02-20 10:42:00,
2013-02-20 05:52:00,29.0,15.0,29.47,WNW,283,4.0,8.0,55,0.00,,,-99.99,,2013-02-20 10:52:00,
2013-02-20 06:02:00,28.0,14.0,29.47,WNW,292,5.0,11.0,55,0.00,,,-99.99,,2013-02-20 11:02:00,
2013-02-20 06:11:00,28.0,14.0,29.47,WNW,293,5.0,11.0,56,0.00,,,-99.99,,2013-02-20 11:11:00,
2013-02-20 06:21:00,28.0,14.0,29.47,WNW,293,5.0,11.0,56,0.00,,,-99.99,,2013-02-20 11:21:00,
2013-02-20 06:32:00,28.0,14.0,29.48,WNW,288,5.0,10.0,54,0.00,,,-99.99,,2013-02-20 11:32:00,
2013-02-20 06:42:00,28.0,14.0,29.48,WNW,288,5.0,10.0,54,0.00,,,-99.99,,2013-02-20 11:42:00,
2013-02-20 06:52:00,28.0,14.0,29.50,WNW,293,4.0,9.0,56,0.00,,,-99.99,,2013-02-20 11:52:00,
2013-02-20 07:02:00,28.0,14.0,29.50,WNW,288,5.0,9.0,56,0.00,,,-99.99,,2013-02-20 12:02:00,
2013-02-20 07:12:00,28.0,14.0,29.50,WNW,288,5.0,9.0,56,0.00,,,-99.99,,2013-02-20 12:12:00,
2013-02-20 07:21:00,28.0,14.0,29.50,WNW,295,4.0,10.0,56,0.00,,,-99.99,,2013-02-20 12:21:00,
2013-02-20 07:32:00,29.0,15.0,29.50,WNW,290,4.0,9.0,56,0.00,,,-99.99,,2013-02-20 12:32:00,
2013-02-20 07:42:00,29.0,15.0,29.50,WNW,290,4.0,9.0,56,0.00,,,-99.99,,2013-02-20 12:42:00,
2013-02-20 07:53:00,29.0,16.0,29.50,WNW,282,3.0,7.0,57,0.00,,,-99.99,,2013-02-20 12:53:00,
2013-02-20 08:01:00,30.0,16.0,29.50,WNW,284,5.0,10.0,55,0.00,,,-99.99,,2013-02-20 13:01:00,
2013-02-20 08:11:00,30.0,16.0,29.50,WNW,284,5.0,10.0,55,0.00,,,-99.99,,2013-02-20 13:11:00,
2013-02-20 08:22:00,31.0,16.0,29.52,WNW,294,5.0,9.0,54,0.00,,,-99.99,,2013-02-20 13:22:00,
2013-02-20 08:32:00,30.0,16.0,29.53,WNW,287,4.0,10.0,56,0.00,,,-99.99,,2013-02-20 13:32:00,
2013-02-20 08:42:00,30.0,16.0,29.53,WNW,287,4.0,10.0,56,0.00,,,-99.99,,2013-02-20 13:42:00,
2013-02-20 08:52:00,30.0,15.0,29.53,WNW,292,5.0,12.0,52,0.00,,,-99.99,,2013-02-20 13:52:00,
2013-02-20 09:01:00,29.0,13.0,29.53,WNW,290,5.0,11.0,51,0.00,,,-99.99,,2013-02-20 14:01:00,
2013-02-20 09:11:00,29.0,13.0,29.53,WNW,290,5.0,11.0,51,0.00,,,-99.99,,2013-02-20 14:11:00,
2013-02-20 09:21:00,29.0,12.0,29.53,WNW,296,5.0,10.0,48,0.00,,,-99.99,,2013-02-20 14:21:00,
2013-02-20 09:32:00,34.0,13.0,29.53,West,280,7.0,11.0,41,0.00,,,-99.99,,2013-02-20 14:32:00,
2013-02-20 09:42:00,37.0,14.0,29.53,WNW,295,4.0,10.0,38,0.00,,,-99.99,,2013-02-20 14:42:00,
2013-02-20 09:52:00,37.0,14.0,29.53,WNW,295,4.0,10.0,38,0.00,,,-99.99,,2013-02-20 14:52:00,
2013-02-20 10:01:00,36.0,12.0,29.53,NNW,327,5.0,12.0,37,0.00,,,-99.99,,2013-02-20 15:01:00,
2013-02-20 10:11:00,36.0,12.0,29.53,WNW,288,5.0,10.0,36,0.00,,,-99.99,,2013-02-20 15:11:00,
2013-02-20 10:22:00,36.0,12.0,29.53,WNW,288,5.0,10.0,36,0.00,,,-99.99,,2013-02-20 15:22:00,
2013-02-20 10:32:00,37.0,11.0,29.53,West,281,5.0,10.0,34,0.00,,,-99.99,,2013-02-20 15:32:00,
2013-02-20 10:42:00,37.0,11.0,29.53,WNW,289,6.0,11.0,34,0.00,,,-99.99,,2013-02-20 15:42:00,
2013-02-20 10:52:00,37.0,11.0,29.53,WNW,289,6.0,11.0,34,0.00,,,-99.99,,2013-02-20 15:52:00,
2013-02-20 11:01:00,37.0,11.0,29.53,WNW,289,5.0,11.0,33,0.00,,,-99.99,,2013-02-20 16:01:00,
2013-02-20 11:12:00,34.0,11.0,29.53,WNW,288,4.0,13.0,37,0.00,,,-99.99,,2013-02-20 16:12:00,
2013-02-20 11:21:00,34.0,11.0,29.53,WNW,288,4.0,13.0,37,0.00,,,-99.99,,2013-02-20 16:21:00,
2013-02-20 11:32:00,37.0,13.0,29.53,WNW,288,5.0,10.0,36,0.00,,,-99.99,,2013-02-20 16:32:00,
2013-02-20 11:42:00,37.0,13.0,29.53,WNW,290,5.0,12.0,36,0.00,,,-99.99,,2013-02-20 16:42:00,
2013-02-20 11:52:00,37.0,13.0,29.53,WNW,290,5.0,12.0,36,0.00,,,-99.99,,2013-02-20 16:52:00,
2013-02-20 12:01:00,33.0,11.0,29.53,WNW,292,5.0,10.0,40,0.00,,,-99.99,,2013-02-20 17:01:00,
2013-02-20 12:11:00,33.0,11.0,29.53,WNW,288,4.0,8.0,40,0.00,,,-99.99,,2013-02-20 17:11:00,
2013-02-20 12:21:00,33.0,11.0,29.53,WNW,288,4.0,8.0,40,0.00,,,-99.99,,2013-02-20 17:21:00,
2013-02-20 12:32:00,34.0,13.0,29.53,WNW,283,5.0,8.0,41,0.00,,,-99.99,,2013-02-20 17:32:00,
2013-02-20 12:42:00,37.0,13.0,29.51,West,277,5.0,10.0,36,0.00,,,-99.99,,2013-02-20 17:42:00,
2013-02-20 12:52:00,37.0,13.0,29.51,West,277,5.0,10.0,36,0.00,,,-99.99,,2013-02-20 17:52:00,
2013-02-20 13:02:00,37.0,11.0,29.53,WNW,294,6.0,12.0,34,0.00,,,-99.99,,2013-02-20 18:02:00,
2013-02-20 13:11:00,32.0,11.0,29.53,WNW,289,4.0,9.0,41,0.00,,,-99.99,,2013-02-20 18:11:00,
2013-02-20 13:21:00,32.0,11.0,29.53,WNW,289,4.0,9.0,41,0.00,,,-99.99,,2013-02-20 18:21:00,
2013-02-20 13:32:00,32.0,11.0,29.52,WNW,283,4.0,10.0,41,0.00,,,-99.99,,2013-02-20 18:32:00,
2013-02-20 13:42:00,32.0,11.0,29.52,WNW,283,4.0,10.0,41,0.00,,,-99.99,,2013-02-20 18:42:00,
2013-02-20 13:52:00,35.0,11.0,29.52,WNW,291,5.0,9.0,37,0.00,,,-99.99,,2013-02-20 18:52:00,
2013-02-20 14:01:00,32.0,10.0,29.52,WNW,288,6.0,13.0,39,0.00,,,-99.99,,2013-02-20 19:01:00,
2013-02-20 14:11:00,32.0,10.0,29.52,WNW,288,6.0,13.0,39,0.00,,,-99.99,,2013-02-20 19:11:00,
2013-02-20 14:21:00,35.0,11.0,29.51,WNW,292,5.0,10.0,36,0.00,,,-99.99,,2013-02-20 19:21:00,
2013-02-20 14:31:00,32.0,10.0,29.52,WNW,286,5.0,12.0,40,0.00,,,-99.99,,2013-02-20 19:31:00,
2013-02-20 14:41:00,32.0,10.0,29.52,WNW,286,5.0,12.0,40,0.00,,,-99.99,,2013-02-20 19:41:00,
2013-02-20 14:52:00,33.0,11.0,29.53,WNW,298,5.0,9.0,40,0.00,,,-99.99,,2013-02-20 19:52:00,
2013-02-20 15:01:00,30.0,10.0,29.53,WNW,291,6.0,11.0,42,0.00,,,-99.99,,2013-02-20 20:01:00,
2013-02-20 15:11:00,31.0,10.0,29.53,WNW,293,4.0,8.0,41,0.00,,,-99.99,,2013-02-20 20:11:00,
2013-02-20 15:21:00,31.0,10.0,29.53,WNW,293,4.0,8.0,41,0.00,,,-99.99,,2013-02-20 20:21:00,
2013-02-20 15:31:00,30.0,9.0,29.53,WNW,288,5.0,10.0,40,0.00,,,-99.99,,2013-02-20 20:31:00,
2013-02-20 15:41:00,30.0,8.0,29.53,WNW,296,6.0,12.0,39,0.00,,,-99.99,,2013-02-20 20:41:00,
2013-02-20 15:52:00,30.0,8.0,29.53,WNW,296,6.0,12.0,39,0.00,,,-99.99,,2013-02-20 20:52:00,
2013-02-20 16:01:00,30.0,9.0,29.53,WNW,294,4.0,10.0,41,0.00,,,-99.99,,2013-02-20 21:01:00,
2013-02-20 16:11:00,31.0,9.0,29.53,WNW,293,6.0,13.0,39,0.00,,,-99.99,,2013-02-20 21:11:00,
2013-02-20 16:21:00,31.0,9.0,29.53,WNW,293,6.0,13.0,39,0.00,,,-99.99,,2013-02-20 21:21:00,
2013-02-20 16:31:00,29.0,9.0,29.53,WNW,302,5.0,13.0,42,0.00,,,-99.99,,2013-02-20 21:31:00,
2013-02-20 16:42:00,29.0,9.0,29.53,WNW,302,5.0,13.0,42,0.00,,,-99.99,,2013-02-20 21:42:00,
2013-02-20 16:52:00,30.0,9.0,29.53,WNW,292,5.0,12.0,41,0.00,,,-99.99,,2013-02-20 21:52:00,
2013-02-20 17:01:00,29.0,9.0,29.53,WNW,292,3.0,11.0,43,0.00,,,-99.99,,2013-02-20 22:01:00,
2013-02-20 17:11:00,29.0,9.0,29.54,WNW,292,6.0,11.0,43,0.00,,,-99.99,,2013-02-20 22:11:00,
2013-02-20 17:21:00,29.0,9.0,29.54,WNW,292,6.0,11.0,43,0.00,,,-99.99,,2013-02-20 22:21:00,
2013-02-20 17:31:00,27.0,8.0,29.56,WNW,289,5.0,13.0,44,0.00,,,-99.99,,2013-02-20 22:31:00,
2013-02-20 17:42:00,27.0,8.0,29.56,WNW,289,5.0,13.0,44,0.00,,,-99.99,,2013-02-20 22:42:00,
2013-02-20 17:52:00,27.0,8.0,29.56,WNW,287,7.0,14.0,43,0.00,,,-99.99,,2013-02-20 22:52:00,
2013-02-20 18:01:00,27.0,8.0,29.56,WNW,291,5.0,13.0,44,0.00,,,-99.99,,2013-02-20 23:01:00,
2013-02-20 18:12:00,27.0,9.0,29.56,WNW,290,5.0,11.0,46,0.00,,,-99.99,,2013-02-20 23:12:00,
2013-02-20 18:22:00,27.0,9.0,29.56,WNW,290,5.0,11.0,46,0.00,,,-99.99,,2013-02-20 23:22:00,
2013-02-20 18:32:00,27.0,9.0,29.56,WNW,294,5.0,8.0,46,0.00,,,-99.99,,2013-02-20 23:32:00,
2013-02-20 18:42:00,27.0,9.0,29.56,WNW,294,5.0,8.0,46,0.00,,,-99.99,,2013-02-20 23:42:00,
2013-02-20 18:52:00,27.0,9.0,29.56,WNW,293,5.0,10.0,47,0.00,,,-99.99,,2013-02-20 23:52:00,
2013-02-20 19:03:00,27.0,10.0,29.56,WNW,290,5.0,11.0,48,0.00,,,-99.99,,2013-02-21 00:03:00,
2013-02-20 19:11:00,27.0,10.0,29.56,WNW,290,5.0,11.0,48,0.00,,,-99.99,,2013-02-21 00:11:00,
2013-02-20 19:22:00,27.0,11.0,29.58,WNW,286,6.0,11.0,51,0.00,,,-99.99,,2013-02-21 00:22:00,
2013-02-20 19:32:00,27.0,11.0,29.56,WNW,292,5.0,11.0,50,0.00,,,-99.99,,2013-02-21 00:32:00,
2013-02-20 19:42:00,27.0,13.0,29.57,WNW,286,5.0,10.0,55,0.00,,,-99.99,,2013-02-21 00:42:00,
2013-02-20 19:52:00,27.0,13.0,29.57,WNW,286,5.0,10.0,55,0.00,,,-99.99,,2013-02-21 00:52:00,
2013-02-20 20:01:00,27.0,12.0,29.59,WNW,288,5.0,13.0,52,0.00,,,-99.99,,2013-02-21 01:01:00,
2013-02-20 20:11:00,27.0,12.0,29.59,WNW,288,5.0,13.0,52,0.00,,,-99.99,,2013-02-21 01:11:00,
2013-02-20 20:21:00,26.0,10.0,29.59,WNW,298,5.0,18.0,50,0.00,,,-99.99,,2013-02-21 01:21:00,
2013-02-20 20:32:00,25.0,10.0,29.59,WNW,292,5.0,15.0,52,0.00,,,-99.99,,2013-02-21 01:32:00,
2013-02-20 20:42:00,25.0,10.0,29.59,WNW,292,5.0,15.0,52,0.00,,,-99.99,,2013-02-21 01:42:00,
2013-02-20 20:52:00,25.0,9.0,29.59,NW,323,4.0,11.0,51,0.00,,,-99.99,,2013-02-21 01:52:00,
2013-02-20 21:01:00,25.0,9.0,29.59,WNW,297,5.0,15.0,50,0.00,,,-99.99,,2013-02-21 02:01:00,
2013-02-20 21:11:00,25.0,9.0,29.59,WNW,297,5.0,15.0,50,0.00,,,-99.99,,2013-02-21 02:11:00,
2013-02-20 21:21:00,25.0,9.0,29.59,WNW,294,6.0,12.0,51,0.00,,,-99.99,,2013-02-21 02:21:00,
2013-02-20 21:32:00,24.0,9.0,29.59,WNW,292,4.0,9.0,53,0.00,,,-99.99,,2013-02-21 02:32:00,
2013-02-20 21:42:00,24.0,9.0,29.59,WNW,292,4.0,9.0,53,0.00,,,-99.99,,2013-02-21 02:42:00,
2013-02-20 21:52:00,24.0,9.0,29.59,WNW,292,4.0,9.0,53,0.00,,,-99.99,,2013-02-21 02:52:00,
2013-02-20 22:02:00,24.0,8.0,29.59,WNW,293,4.0,11.0,50,0.00,,,-99.99,,2013-02-21 03:02:00,
2013-02-20 22:12:00,24.0,9.0,29.59,WNW,288,3.0,9.0,51,0.00,,,-99.99,,2013-02-21 03:12:00,
2013-02-20 22:21:00,24.0,9.0,29.59,WNW,288,3.0,9.0,51,0.00,,,-99.99,,2013-02-21 03:21:00,
2013-02-20 22:32:00,24.0,8.0,29.59,WNW,289,5.0,10.0,50,0.00,,,-99.99,,2013-02-21 03:32:00,
2013-02-20 22:42:00,24.0,8.0,29.59,WNW,289,5.0,10.0,50,0.00,,,-99.99,,2013-02-21 03:42:00,
2013-02-20 22:52:00,24.0,8.0,29.59,WNW,289,5.0,12.0,50,0.00,,,-99.99,,2013-02-21 03:52:00,
2013-02-20 23:01:00,24.0,9.0,29.59,WNW,290,4.0,10.0,51,0.00,,,-99.99,,2013-02-21 04:01:00,
2013-02-20 23:11:00,24.0,9.0,29.59,WNW,290,4.0,10.0,51,0.00,,,-99.99,,2013-02-21 04:11:00,
2013-02-20 23:22:00,23.0,8.0,29.61,WNW,294,4.0,10.0,51,0.00,,,-99.99,,2013-02-21 04:22:00,
2013-02-20 23:32:00,23.0,8.0,29.62,WNW,298,4.0,9.0,52,0.00,,,-99.99,,2013-02-21 04:32:00,
2013-02-20 23:42:00,23.0,8.0,29.62,WNW,298,4.0,9.0,52,0.00,,,-99.99,,2013-02-21 04:42:00,
2013-02-20 23:52:00,23.0,8.0,29.62,WNW,293,3.0,8.0,53,0.00,,,-99.99,,2013-02-21 04:52:00,